Total_Precipitation_Accumulation
2.33 2.53 2.91 3.33 3.61 3.78 3.89 4.22 4.39 4.16 3.73 3.36 2.93 2.84 2.84 2.61 2.40 2.33 2.20 2.38 2.31 2.55 2.97 2.69 2.99 2.66 2.73 2.90 2.88 3.10 3.06 2.74 2.69 3.11 3.11 2.52 2.05 2.10 1.99 1.97 2.20 2.17 2.28
2.00 2.06 2.20 2.54 2.77 3.00 3.27 3.62 3.87 3.74 3.17 2.97 2.83 2.77 2.77 2.59 2.63 2.54 2.52 2.29 2.26 2.51 2.60 3.01 2.76 2.82 2.99 2.97 2.99 3.15 3.16 2.85 2.83 3.30 3.65 3.23 3.12 2.67 1.86 1.93 2.13 2.20 2.40
1.80 1.88 1.86 1.95 2.22 2.80 3.01 2.92 3.19 3.38 3.13 3.07 3.01 2.94 2.94 2.74 2.86 2.85 2.76 2.39 2.20 2.21 2.43 2.62 2.64 2.88 2.66 3.01 3.22 3.18 3.30 3.34 3.15 3.18 3.66 3.67 3.54 2.97 2.34 1.89 1.91 2.19 2.60
1.43 1.63 1.53 1.56 1.78 2.08 2.38 2.74 3.07 3.16 3.09 3.01 2.83 2.76 2.57 2.54 2.56 2.59 2.61 2.44 2.28 2.17 2.26 2.38 2.72 2.91 2.63 3.21 2.78 2.91 3.19 3.39 3.21 3.17 3.03 3.16 3.42 3.45 3.15 2.55 2.02 2.04 2.35
0.94 1.09 1.23 1.37 1.43 1.57 1.97 2.53 3.00 3.22 3.12 2.81 2.71 2.86 2.69 2.62 2.61 2.52 2.72 2.54 2.36 2.17 2.05 2.33 2.63 2.77 2.66 2.84 2.91 3.21 3.06 3.02 3.04 3.12 3.19 3.36 3.33 3.04 3.16 3.12 2.78 2.43 1.93
0.73 0.80 0.92 1.19 1.39 1.43 1.66 2.11 2.56 2.85 2.92 2.73 2.64 2.73 2.83 2.84 2.71 2.57 2.55 2.36 2.30 2.22 2.12 2.32 2.63 2.60 2.67 2.87 2.84 3.00 2.99 3.06 3.14 2.97 2.90 3.18 3.21 3.11 3.20 2.89 2.67 2.57 1.90
0.69 0.83 0.97 1.11 1.22 1.33 1.51 1.76 1.97 2.18 2.42 2.60 2.67 2.60 2.77 2.86 2.63 2.39 2.44 2.39 2.22 2.21 2.28 2.44 2.72 2.63 2.71 2.82 3.07 3.15 3.08 3.06 3.08 2.91 2.76 2.74 2.65 2.79 3.00 3.15 2.73 2.44 1.92
0.76 0.87 1.09 1.19 1.16 1.22 1.46 1.56 1.71 1.96 2.28 2.47 2.53 2.48 2.43 2.33 2.26 2.41 2.32 2.32 2.28 2.21 2.15 2.34 2.40 2.38 2.47 2.53 3.08 2.90 2.87 2.99 2.91 2.64 2.93 2.79 2.40 2.51 2.72 3.07 3.32 2.99 2.53
0.88 0.96 1.14 1.18 1.10 1.14 1.34 1.47 1.64 1.82 2.00 2.32 2.51 2.40 2.34 2.16 2.11 2.17 2.15 2.10 2.24 2.19 2.16 2.19 2.28 2.36 2.51 2.66 2.86 2.74 2.83 3.05 2.90 2.81 2.97 2.72 2.44 2.41 2.38 2.77 3.26 3.63 3.36
0.99 1.11 1.12 1.14 1.10 1.16 1.39 1.47 1.61 1.69 1.75 1.91 2.00 1.91 2.09 2.09 2.19 2.18 2.08 1.98 1.98 2.02 2.10 2.20 2.24 2.33 2.44 2.71 2.89 2.83 2.93 3.01 2.87 2.89 2.98 2.83 2.56 2.63 2.49 2.58 2.98 3.31 3.51
0.98 1.08 1.04 1.02 0.99 1.05 1.20 1.24 1.41 1.57 1.64 1.78 1.84 1.92 2.02 2.05 2.08 2.12 2.09 2.09 2.10 2.12 2.11 2.22 2.28 2.29 2.30 2.51 2.72 2.61 2.85 2.99 3.03 2.82 2.80 2.78 2.84 2.88 2.72 2.84 2.92 3.03 3.42
0.82 1.03 1.09 1.09 0.88 0.93 1.03 1.15 1.38 1.57 1.65 1.85 1.97 2.00 2.11 2.15 2.08 2.12 2.31 2.31 2.27 2.25 2.25 2.34 2.44 2.36 2.35 2.53 2.54 2.38 2.48 2.70 2.92 3.15 3.30 3.06 3.09 3.12 3.00 3.01 2.98 3.05 3.35
0.83 0.98 1.09 0.99 0.88 0.88 0.94 0.99 1.16 1.36 1.49 1.65 1.84 2.09 2.11 2.15 2.33 2.52 2.66 2.67 2.56 2.50 2.51 2.59 2.52 2.54 2.60 2.59 2.47 2.48 2.52 2.59 2.66 2.94 3.22 3.25 3.47 3.20 3.22 3.16 3.03 3.05 3.08
0.78 0.81 0.99 1.01 0.92 0.88 0.90 0.95 1.10 1.27 1.45 1.76 1.99 2.18 2.40 2.56 2.71 2.71 2.79 2.79 2.75 2.74 2.72 2.73 2.66 2.61 2.66 2.69 2.67 2.67 2.61 2.64 2.59 2.67 2.81 2.96 3.26 3.25 3.36 3.19 3.18 3.30 3.38
0.77 0.89 1.01 1.17 1.17 1.09 1.01 1.04 1.29 1.52 1.77 2.07 2.22 2.28 2.40 2.57 2.83 3.05 3.04 2.97 2.88 2.77 2.95 2.94 2.85 2.85 2.82 2.60 2.76 2.99 2.94 2.98 2.74 2.64 2.62 2.62 2.88 2.98 3.08 2.79 2.99 3.35 3.42
0.89 1.05 1.20 1.33 1.42 1.45 1.44 1.48 1.64 1.94 2.24 2.52 2.65 2.79 2.90 3.03 3.16 3.24 3.29 3.35 3.29 3.22 3.16 3.06 3.10 3.05 2.76 2.89 2.98 2.91 2.95 3.14 3.09 2.92 2.86 2.72 2.66 2.68 2.73 2.73 2.83 3.01 3.02
1.06 1.20 1.30 1.39 1.53 1.57 1.64 1.84 2.03 2.27 2.49 2.66 2.77 2.88 3.00 3.19 3.35 3.42 3.47 3.34 3.32 3.29 3.19 3.17 3.21 3.11 3.13 3.09 2.85 2.72 2.73 2.83 2.92 2.96 2.92 2.58 2.41 2.67 2.56 2.71 2.73 2.55 2.49
1.19 1.24 1.33 1.43 1.54 1.67 1.83 2.03 2.19 2.30 2.61 2.83 2.92 2.98 3.03 3.13 3.33 3.55 3.49 3.35 3.35 3.30 3.27 3.21 3.11 3.04 2.92 2.99 2.74 2.73 2.59 2.54 2.52 2.66 2.77 2.69 2.56 2.59 2.73 2.63 2.35 2.12 2.10
1.20 1.28 1.38 1.46 1.58 1.65 1.71 1.73 1.87 2.09 2.34 2.56 2.74 2.76 2.91 3.10 3.20 3.24 3.28 3.39 3.39 3.19 3.04 2.93 2.92 2.89 2.95 3.21 2.91 2.78 2.52 2.50 2.36 2.41 2.44 2.44 2.29 2.46 2.62 2.48 2.22 2.01 1.89
1.18 1.31 1.46 1.52 1.49 1.52 1.57 1.66 1.82 2.05 2.27 2.48 2.69 2.87 3.03 3.20 3.25 3.29 3.44 3.51 3.49 3.44 3.40 3.26 3.21 3.13 3.09 3.32 3.04 2.86 2.56 2.52 2.46 2.52 2.52 2.57 2.29 2.24 2.21 2.08 2.08 1.89 1.78
1.13 1.23 1.42 1.59 1.58 1.55 1.75 1.95 2.09 2.23 2.40 2.54 2.64 2.79 2.99 3.23 3.51 3.70 3.64 3.63 3.62 3.53 3.37 3.23 3.10 3.08 3.09 3.11 2.91 2.76 2.40 2.31 2.40 2.29 2.22 2.24 2.23 1.99 1.82 1.77 1.73 1.69 1.81
1.08 1.28 1.44 1.59 1.72 1.80 1.97 2.18 2.21 2.25 2.46 2.69 2.79 2.87 3.09 3.17 3.35 3.62 3.64 3.56 3.55 3.46 3.37 3.37 3.36 3.28 3.13 2.84 2.61 2.51 2.37 2.36 2.33 2.32 2.30 2.29 2.28 1.98 1.82 1.64 1.51 1.62 1.67
1.15 1.29 1.45 1.61 1.70 1.89 2.08 2.24 2.32 2.39 2.52 2.66 2.83 3.04 3.17 3.26 3.40 3.57 3.63 3.62 3.54 3.39 3.25 3.16 3.00 2.98 2.99 2.90 2.67 2.39 2.20 2.16 2.00 2.16 2.51 2.54 2.45 2.19 1.88 1.78 1.80 1.76 1.63
1.44 1.45 1.53 1.65 1.75 1.81 2.02 2.21 2.35 2.40 2.53 2.63 2.70 2.88 3.05 3.21 3.38 3.41 3.28 3.14 3.00 2.93 2.91 2.76 2.65 2.67 2.73 2.60 2.50 2.33 2.23 2.24 2.11 2.13 2.44 2.59 2.56 2.40 2.14 2.02 1.95 1.74 1.68
1.56 1.59 1.67 1.78 1.81 1.83 1.90 2.15 2.37 2.46 2.51 2.64 2.73 2.75 2.78 2.88 3.06 3.13 3.08 2.95 2.77 2.63 2.59 2.47 2.49 2.49 2.41 2.44 2.48 2.30 2.16 2.15 2.22 2.30 2.49 2.62 2.71 2.72 2.63 2.52 2.44 2.32 2.17
1.69 1.71 1.76 1.81 1.83 1.93 2.02 2.13 2.42 2.70 2.78 2.75 2.61 2.55 2.49 2.51 2.60 2.62 2.65 2.78 2.64 2.64 2.50 2.37 2.29 2.19 2.22 2.27 2.22 2.11 2.02 2.04 2.19 2.24 2.34 2.59 2.79 2.87 2.97 3.01 2.88 2.64 2.43